SPACEBEENZ-5 (46941 NORAD) Tracking and Keplerian Element Data

This shows tracking and keplerian element data for the satellite.

Feedback or suggestion? Click here.




ElementValue
Catalog46941
NameSPACEBEENZ-5
Epoch Orbit894
Epoch Day17.93519766
Epoch Year2021
RAAN157.3412
Inclination97.3733
Eccentricity0.0017371
Argument of Perigee92.8228
Mean Anonmoly267.4991
Mean Motion15.21340837
Decay Rate2.428E-05
L11 46941U 20085N 21017.93519766 .00002428 00000-0 11109-3 0 9997
L22 46941 97.3733 157.3412 0017371 92.8228 267.4991 15.21340837 8944

Live tracking and technical data element details for SPACEBEENZ-5 (NORAD 46941). SPACEBEENZ-5 can be tracked NOW for your location showing map with azimuth and elevation plus other details from your city location.

Track the satellite on the map from your city or location and see movement details for azimuth, elevation, latitude, longitude, range, height, and movement on the map or in text.







IsCatalogInMostPopularTable: catalog: 46941, numindb: 20
Update: records affected: 1



GetName: 46941 SPACEBEENZ-5

Hit Count: updated at: Tue, 19 Jan 2021 01:29:14 GMT